Powrót do katalogu

FENGYUN 1C DEB

AktywnySSO
NORAD 29931·DEBRIS·🇨🇳 China

Wystrzelony May 10, 1999 z Taiyuan Satellite Launch Center

Loading…

Następne Przeloty (najbliższe 24 godziny)

TLE

ŚwieżeSource: Space-Track

Epoka: Sep 14, 2026, 22:30 UTC

1 29931U 99025JD  26257.93768728 -.00000109  00000-0 -41798-4 0  9996
2 29931  98.8290 290.8205 0032495  43.3755  76.3350 14.04027573  6876

Śledź FENGYUN 1C DEB w czasie rzeczywistym z AllMySat

Download on the App Store